Wind_Speed
8 8 8 8 7 7 6 6 6 5 6 6 6 6 6 6 5 5 4 4 4 4 3 3 2 2 1 2 3 4 4 5 5 5 5 6 6 7 7 6 7 7 7
7 8 8 7 7 6 6 6 6 6 6 6 6 5 6 5 5 5 4 4 4 4 3 3 2 2 1 2 3 4 4 5 5 6 6 6 6 6 6 6 7 7 7
8 8 7 7 7 6 6 6 6 5 5 6 5 5 5 5 5 5 4 4 4 4 4 3 2 1 1 2 3 3 4 5 5 6 6 6 6 6 6 6 7 8 7
7 7 7 7 6 6 6 6 6 5 5 5 5 5 5 5 5 5 5 4 4 3 3 3 3 2 1 2 3 3 4 5 5 6 7 7 6 6 7 7 8 8 8
7 7 7 7 6 7 6 6 6 6 5 5 4 4 5 5 5 5 5 5 4 3 3 4 4 3 2 2 2 3 4 5 6 6 7 7 7 6 7 7 9 9 8
7 7 7 7 7 7 6 6 6 5 5 5 5 4 5 5 4 5 5 5 4 4 3 4 3 3 2 2 2 2 3 4 5 6 6 7 7 7 8 8 9 9 8
7 7 7 7 7 6 6 6 6 5 5 5 4 4 4 4 4 5 5 5 5 4 4 4 4 3 2 2 2 2 2 4 5 6 6 7 7 7 8 8 8 9 8
6 6 7 7 6 6 6 5 5 5 5 5 4 4 4 4 4 4 4 5 5 5 5 5 5 4 3 3 3 2 3 3 5 7 7 7 7 7 7 7 7 8 8
6 7 7 7 6 6 6 5 5 5 5 5 5 4 4 4 3 4 4 4 4 4 5 5 5 4 3 3 3 2 2 3 4 6 7 6 6 5 6 7 8 7 8
5 6 6 6 6 6 6 6 5 5 5 5 5 5 4 4 4 4 4 4 4 4 5 5 6 5 4 4 3 2 2 2 3 4 5 6 7 7 6 7 9 9 9
5 5 6 6 5 5 6 6 6 5 5 5 5 5 4 4 4 4 4 4 4 5 4 5 6 5 4 4 3 2 3 2 4 5 5 6 7 7 8 8 8 8 8
5 5 6 6 5 5 5 6 6 6 6 5 5 4 4 4 4 4 4 4 5 5 4 4 5 4 4 4 4 3 3 3 3 5 5 6 7 7 8 8 8 9 9
5 5 6 6 6 5 5 5 6 6 6 6 5 4 5 5 5 5 5 5 5 4 5 4 4 4 4 4 5 4 3 3 3 4 4 5 6 7 8 8 9 10 10
6 6 6 6 6 5 5 5 6 6 6 6 5 5 5 5 6 6 6 6 5 5 5 5 4 5 5 5 5 4 4 4 4 5 5 6 6 8 9 9 10 10 11
8 8 7 6 6 6 6 6 6 6 6 6 6 6 5 6 6 7 6 6 5 5 6 6 5 6 6 6 6 4 4 5 6 6 6 6 7 7 9 10 11 11 11
9 8 7 6 6 6 6 6 6 7 7 7 6 6 6 7 7 7 6 6 6 6 6 6 6 6 6 6 6 6 6 5 6 6 7 7 8 8 8 9 10 11 10
8 7 7 7 7 7 7 7 7 8 7 7 7 7 7 7 7 7 7 8 7 7 8 8 8 8 8 7 7 6 6 6 7 7 7 7 8 9 9 9 10 10 11
9 8 7 8 7 7 7 8 8 8 8 8 8 8 8 8 8 8 8 8 8 8 9 9 9 9 9 8 8 7 7 7 7 7 8 8 8 9 10 10 10 11 12
9 9 8 8 8 7 8 8 8 9 9 9 9 10 9 9 9 9 9 9 9 9 10 10 10 9 9 9 8 9 9 9 9 9 10 10 10 10 11 11 11 12 13
10 10 9 9 9 8 8 8 8 9 9 9 10 10 10 10 9 9 10 10 10 11 11 12 11 10 10 10 10 10 10 11 11 11 11 12 12 12 12 12 13 13 14
11 11 11 10 10 9 8 8 9 10 10 10 10 10 10 10 10 10 10 10 11 12 12 12 12 11 11 11 12 12 12 12 12 12 12 12 13 13 13 14 14 15 14
12 13 12 11 11 11 10 9 10 10 10 11 12 12 12 12 11 10 10 11 11 12 12 12 12 12 12 13 13 14 13 13 13 13 13 13 13 14 14 15 15 16 16
14 14 13 13 12 11 11 11 11 12 12 12 12 13 13 13 12 11 11 12 12 12 12 12 13 13 14 14 14 14 14 14 13 13 13 13 14 14 14 14 15 15 17
15 14 13 13 13 12 12 12 13 13 13 13 13 14 14 14 13 13 13 13 13 13 13 14 14 15 15 14 14 14 14 15 14 13 14 14 13 14 14 14 14 15 16
15 14 14 14 14 13 13 13 14 15 14 14 14 14 14 13 13 13 14 14 14 14 14 15 15 16 15 15 15 15 15 14 14 14 14 14 14 14 15 15 15 16 16
16 15 15 15 15 15 15 15 15 15 15 15 15 14 13 13 13 14 14 14 15 16 16 16 16 16 16 16 15 15 15 14 14 15 15 15 15 15 16 16 16 17 17
Wind_Direction
43 40 34 32 32 34 34 39 44 48 50 49 51 47 42 38 36 33 30 35 34 22 15 8 0 339 296 270 257 234 226 222 217 218 222 229 226 219 215 214 214 210 200
38 34 28 25 27 31 33 38 40 42 42 43 45 41 36 34 32 31 30 34 34 20 3 350 356 341 300 266 256 241 230 224 217 215 215 219 220 215 213 213 206 209 198
33 29 24 21 20 24 29 33 32 36 37 37 38 34 31 33 33 31 24 30 29 15 3 355 357 348 309 281 260 249 240 236 224 213 211 216 221 220 219 213 209 207 203
30 29 24 17 15 16 19 22 26 30 29 30 31 32 31 32 35 33 27 21 23 13 3 3 360 347 314 299 267 255 251 249 235 216 215 220 223 223 218 214 212 210 208
29 27 21 14 11 11 14 16 20 21 23 27 28 31 31 30 34 33 29 25 20 18 8 4 357 355 329 300 273 261 258 253 236 216 219 220 224 224 214 217 214 207 205
26 22 17 13 11 10 11 13 16 22 23 28 30 30 31 32 32 33 30 31 22 14 8 3 357 353 334 299 275 256 242 233 225 218 216 216 223 225 223 222 216 208 205
21 19 14 11 8 7 8 11 17 23 25 26 27 28 31 35 33 32 27 23 22 19 12 359 353 342 334 322 298 267 253 233 228 220 218 214 219 218 221 219 216 216 211
24 21 15 10 8 7 9 12 16 22 24 25 27 30 30 31 26 24 19 16 15 17 8 357 355 347 347 337 326 292 257 239 229 220 213 209 207 215 221 220 211 211 211
22 20 18 16 13 9 9 11 15 21 24 24 20 16 11 9 12 12 12 9 7 8 5 6 360 354 348 339 336 326 278 246 236 224 220 221 218 222 217 217 208 206 212
23 19 15 13 14 12 11 9 11 16 18 18 15 9 2 359 1 0 357 357 356 358 1 1 357 354 354 347 330 307 294 259 242 231 231 231 230 231 222 214 207 203 199
20 15 8 3 5 6 6 7 5 3 5 6 4 2 360 358 354 350 351 349 348 350 355 352 350 349 349 350 338 306 286 261 243 240 243 240 232 227 222 220 218 214 212
6 4 357 354 355 356 358 1 357 354 353 351 354 357 355 351 348 347 347 344 344 345 348 353 353 350 345 338 334 310 290 269 260 252 245 237 229 226 224 222 219 217 218
345 344 344 344 345 346 349 349 350 346 344 344 346 347 348 347 346 343 339 335 335 337 341 347 343 342 344 331 321 313 309 288 274 270 245 236 230 228 228 226 220 221 228
328 327 331 333 332 331 336 335 336 337 334 337 340 335 336 340 340 334 331 331 327 325 328 332 327 327 328 328 323 313 305 301 291 272 253 248 245 238 236 235 231 232 233
318 317 320 320 326 328 327 329 326 325 325 327 325 321 326 330 331 330 326 326 324 319 321 323 319 320 319 320 320 308 300 294 290 282 262 257 251 240 239 239 239 233 239
317 307 307 316 321 324 320 318 313 312 312 314 315 312 314 317 317 319 319 317 316 315 313 315 311 310 311 309 310 304 296 294 290 286 277 265 256 249 248 244 239 239 243
320 310 299 305 310 315 312 308 304 302 300 302 305 306 308 310 308 308 311 313 310 312 312 310 307 303 303 301 300 301 299 294 292 290 284 271 261 256 254 250 247 243 246
311 312 303 303 298 301 305 305 302 298 295 296 299 299 300 303 303 304 304 308 304 306 311 311 306 303 301 298 297 298 297 295 292 288 284 275 267 261 255 252 247 244 246
304 306 303 302 298 295 299 299 298 299 295 292 291 293 292 294 298 301 301 301 299 302 306 309 306 305 304 300 296 294 292 292 290 286 281 276 269 265 258 253 248 245 245
298 298 298 297 301 298 296 296 296 296 293 292 290 287 289 290 294 298 299 295 295 298 301 305 304 302 299 297 295 295 295 292 288 285 279 276 272 266 260 254 252 249 249
297 297 298 298 304 304 302 297 297 295 293 295 295 286 283 284 290 294 295 291 293 297 301 303 302 300 296 294 293 291 293 293 289 284 280 277 272 267 261 257 253 250 250
296 293 294 296 300 301 300 297 296 298 295 296 297 293 288 286 286 288 292 294 295 299 303 302 301 298 295 293 293 291 290 288 286 282 281 279 274 270 264 259 256 254 254
291 289 290 293 298 301 300 300 299 297 296 296 298 297 293 293 291 290 288 292 294 296 299 301 302 301 296 293 291 291 288 284 281 278 279 277 274 270 264 259 258 256 257
288 288 286 288 293 296 297 300 301 299 296 295 297 295 295 295 293 292 292 290 292 295 298 299 300 299 298 293 290 289 286 282 280 275 274 275 275 271 266 260 257 257 257
286 286 283 285 289 292 293 296 299 301 297 295 294 293 293 293 290 293 295 294 290 290 293 297 299 299 300 298 294 288 285 283 280 276 273 271 270 269 267 264 261 258 259
283 284 282 282 286 289 291 293 295 298 299 298 295 292 292 291 288 291 295 294 293 292 293 295 297 296 297 296 293 289 283 281 279 276 273 269 267 266 267 265 265 260 260
Height
5898 5896 5895 5895 5893 5892 5891 5890 5889 5887 5886 5885 5884 5883 5882 5881 5880 5879 5878 5877 5876 5875 5874 5874 5873 5873 5872 5872 5872 5872 5872 5873 5873 5873 5874 5873 5873 5874 5875 5875 5876 5876 5877
5898 5896 5896 5895 5894 5892 5891 5890 5889 5887 5886 5885 5884 5883 5882 5881 5880 5879 5878 5877 5876 5875 5874 5873 5872 5872 5872 5871 5871 5871 5872 5872 5872 5873 5873 5873 5873 5873 5874 5874 5875 5876 5877
5898 5896 5896 5895 5894 5892 5891 5890 5889 5887 5886 5885 5884 5883 5882 5881 5879 5878 5878 5877 5875 5874 5874 5873 5872 5872 5871 5871 5871 5871 5871 5871 5871 5872 5872 5872 5872 5872 5873 5874 5875 5875 5876
5898 5897 5896 5895 5894 5893 5891 5890 5888 5887 5886 5885 5884 5883 5882 5881 5879 5878 5878 5876 5875 5874 5873 5873 5872 5871 5870 5870 5870 5870 5870 5870 5870 5870 5871 5871 5871 5872 5872 5873 5874 5875 5876
5898 5897 5896 5895 5894 5893 5891 5890 5889 5887 5886 5885 5884 5882 5881 5880 5879 5878 5877 5876 5875 5874 5873 5872 5872 5871 5870 5870 5870 5870 5869 5869 5869 5869 5869 5870 5870 5871 5871 5872 5873 5874 5875
5898 5897 5896 5895 5894 5893 5891 5890 5888 5887 5886 5885 5883 5882 5881 5880 5879 5879 5877 5876 5875 5874 5873 5872 5871 5870 5870 5869 5869 5869 5868 5868 5868 5868 5868 5869 5870 5870 5870 5871 5871 5872 5874
5898 5897 5896 5895 5894 5893 5891 5890 5888 5887 5886 5884 5883 5882 5881 5880 5879 5878 5877 5876 5875 5874 5873 5872 5871 5870 5869 5869 5868 5868 5867 5867 5867 5868 5867 5868 5868 5868 5869 5870 5870 5872 5873
5899 5898 5896 5895 5894 5893 5891 5890 5888 5887 5886 5884 5883 5882 5881 5880 5879 5878 5877 5876 5875 5874 5872 5871 5870 5869 5869 5868 5867 5867 5866 5866 5866 5866 5866 5866 5867 5867 5868 5868 5869 5871 5872
5899 5898 5897 5895 5894 5893 5891 5890 5889 5887 5886 5884 5883 5882 5881 5880 5879 5878 5877 5876 5875 5874 5872 5871 5870 5869 5868 5868 5867 5866 5866 5865 5865 5865 5866 5866 5866 5867 5867 5867 5868 5870 5871
5899 5898 5896 5895 5894 5892 5891 5890 5889 5887 5886 5884 5883 5882 5881 5880 5879 5878 5877 5876 5875 5874 5872 5871 5870 5869 5868 5867 5867 5866 5865 5864 5864 5864 5864 5865 5865 5866 5867 5868 5868 5869 5870
5898 5897 5896 5895 5893 5892 5891 5890 5888 5887 5886 5884 5883 5882 5880 5879 5878 5877 5876 5875 5874 5873 5872 5871 5870 5869 5868 5867 5866 5866 5865 5864 5863 5863 5863 5863 5864 5865 5865 5867 5868 5868 5869
5898 5897 5896 5894 5893 5892 5891 5889 5888 5886 5885 5884 5882 5881 5880 5879 5878 5877 5876 5875 5874 5873 5872 5871 5870 5869 5868 5867 5866 5865 5864 5864 5863 5862 5862 5862 5863 5864 5865 5866 5867 5868 5868
5898 5896 5895 5894 5893 5891 5890 5888 5887 5886 5884 5883 5882 5881 5879 5878 5877 5876 5875 5874 5873 5872 5871 5870 5869 5868 5867 5866 5865 5864 5864 5863 5862 5861 5861 5861 5862 5863 5864 5865 5866 5867 5868
5897 5896 5894 5893 5892 5890 5889 5888 5886 5885 5884 5882 5881 5880 5879 5878 5877 5875 5874 5873 5872 5871 5870 5869 5869 5868 5867 5865 5865 5864 5863 5863 5862 5861 5860 5860 5861 5861 5862 5863 5864 5865 5866
5896 5895 5893 5892 5891 5889 5888 5887 5885 5884 5883 5881 5880 5879 5878 5877 5875 5874 5873 5872 5871 5870 5869 5869 5868 5867 5866 5865 5864 5863 5862 5862 5861 5861 5860 5859 5859 5860 5860 5861 5862 5863 5864
5895 5893 5892 5890 5889 5888 5887 5885 5884 5883 5881 5880 5879 5878 5876 5875 5874 5873 5872 5872 5871 5869 5868 5867 5867 5866 5865 5864 5863 5862 5862 5861 5861 5860 5859 5859 5858 5859 5859 5860 5860 5861 5862
5893 5892 5891 5889 5888 5886 5885 5884 5882 5881 5880 5879 5877 5876 5875 5874 5873 5872 5871 5870 5869 5868 5867 5866 5865 5864 5863 5863 5862 5861 5861 5860 5859 5859 5858 5857 5857 5857 5857 5858 5859 5859 5860
5892 5891 5889 5888 5886 5885 5883 5882 5880 5879 5878 5877 5876 5875 5874 5872 5871 5870 5870 5869 5867 5866 5865 5864 5863 5862 5862 5861 5860 5860 5859 5859 5858 5857 5856 5856 5855 5855 5855 5856 5856 5857 5857
5890 5889 5887 5886 5884 5883 5881 5880 5878 5877 5876 5875 5874 5873 5872 5871 5870 5869 5868 5867 5865 5865 5864 5863 5861 5860 5860 5859 5858 5858 5857 5857 5856 5855 5855 5854 5853 5853 5853 5853 5853 5854 5854
5888 5887 5886 5884 5882 5881 5879 5878 5876 5875 5874 5873 5871 5870 5869 5869 5868 5866 5866 5865 5864 5863 5862 5861 5860 5859 5858 5857 5856 5855 5855 5854 5853 5853 5852 5851 5850 5850 5850 5850 5850 5851 5851
5886 5885 5883 5882 5880 5879 5877 5875 5874 5873 5872 5871 5869 5868 5867 5866 5865 5864 5863 5862 5862 5861 5859 5858 5857 5856 5855 5854 5854 5853 5852 5851 5850 5850 5849 5848 5847 5847 5846 5846 5847 5847 5848
5884 5883 5881 5880 5878 5877 5875 5874 5872 5871 5870 5869 5867 5866 5864 5863 5862 5861 5861 5860 5859 5858 5857 5856 5855 5853 5852 5851 5851 5850 5849 5849 5847 5846 5845 5845 5844 5843 5842 5843 5843 5844 5844
5881 5880 5879 5877 5876 5875 5873 5872 5870 5869 5868 5867 5865 5864 5863 5861 5859 5859 5858 5858 5856 5855 5854 5853 5852 5851 5849 5848 5847 5846 5845 5845 5844 5843 5842 5841 5840 5839 5839 5839 5839 5840 5840
5878 5877 5876 5875 5874 5872 5871 5870 5868 5867 5865 5864 5863 5861 5860 5859 5858 5856 5855 5854 5853 5852 5851 5850 5849 5847 5846 5844 5843 5842 5841 5840 5839 5839 5838 5837 5836 5836 5835 5835 5835 5835 5836
5875 5874 5873 5872 5871 5870 5869 5867 5866 5864 5863 5861 5860 5859 5857 5856 5855 5854 5852 5851 5850 5849 5848 5847 5845 5844 5842 5841 5839 5838 5837 5836 5835 5835 5834 5834 5833 5832 5832 5831 5831 5832 5832
5871 5870 5869 5868 5868 5867 5866 5864 5863 5862 5860 5859 5857 5856 5854 5853 5852 5851 5849 5848 5847 5845 5844 5843 5841 5840 5838 5837 5835 5834 5833 5832 5831 5830 5830 5829 5829 5828 5828 5828 5828 5828 5828